星链-1209 (STARLINK-1209 )

导读 | 星芒AI

STARLINK-1209 是 SpaceX 星链计划中的一颗低轨通信卫星,属于该计划的第12批发射任务。该卫星旨在为全球用户提供高速互联网服务,尤其关注网络覆盖不足的地区。它运行在约550公里高的近地轨道,具备先进的通信技术和自动避撞功能,以确保运行安全。作为星链星座的一部分,STARLINK-1209 有助于提升全球互联网接入的稳定性和速度,推动数字包容性发展。

基本信息
目录编号:
45206
目录名称:
STARLINK-1209
国际标识:
2020-012AE
轨道中心:
EARTH
卫星名称:
星链-1209
卫星全名:
星链-1209 (STARLINK-1209 )
卫星状态:
在轨 (已飞行2081 天)
发射日期:
2020-02-17 UTC
国别 :
美国 (US)
星等 :
--
轨道信息
数据来源 国际轨道数据
星历时间: 2025-10-28T22:21:24+0800
19小时前
查看轨道信息
半长轴: 6853.569km
偏心率: 0.0002003
轨道倾角: 53.054°
近地点辐角 89.709°
升交点赤经 237.689°
平近点角 270.414°
近地点: 474.061km
远地点: 476.807km
周期: 94.110分钟
每日圈数: 15.301274
详细信息
固有亮度:
5
最大亮度:
2.5
卫星平台:
Starlink V1.0
覆盖范围:
全球
运营商:
太空探索技术公司
运营商所在国:
美国
制造商(研发单位):
太空探索技术公司
制造商所在国:
美国
使用方式:
暂无
卫星简介
星链(Starlink)计划是由太空探索技术公司(SpaceX)提出的一个巨型低轨卫星互联网星座项目,计划在2019年至2024年间在太空搭建由约1.2万颗卫星组成的“星链”网络,其中1584颗将部署在地球上空550千米处的近地轨道,并从2020年开始工作。该卫星仍在工作。
2D轨道图
3D轨道图
轨道高度分析图
轨道倾角分析图
轨道综合分析图
查看轨道综合分析图